Home   Weather   Shenzhen   Past weeks

Flag for China Past Weather in Shenzhen, Guangdong, China — Yesterday and Last 2 Weeks

Now
81 °F

Clear.


Feels Like: 83 °F
Forecast: 69 / 80 °F
Wind: 15 mph from North

Location: Shenzhen Airport

Current Time: Sep 29, 2016 at 4:42:50 AM

Latest Report: Sep 29, 2016 at 4:00 AM


Visibility: 10 mi

Pressure: 29.53 "Hg

Humidity: 66%

Dew Point: 68 °F

Location of ShenzhenLocation

Past Weather in Shenzhen — Graph

°F

Shenzhen Temperature Yesterday

Maximum temperature yesterday: 91 °F (at 2:00 PM)
Minimum temperature yesterday: 84 °F (at 9:00 PM)
Average temperature yesterday: 88 °F

High & Low Weather Summary for the Past Weeks

 TemperatureHumidityPressure
High97 °F (Sep 27, 2:00 PM)94% (Sep 20, 6:00 AM)30.01 "Hg (Sep 20, 6:00 AM)
Low73 °F (Sep 20, 8:00 AM)42% (Sep 27, 3:00 PM)29.47 "Hg (Sep 28, 2:00 PM)
Average85 °F69%29.75 "Hg
* Reported Sep 14 3:00 AM — Sep 29 3:00 AM, Shenzhen, Weather by CustomWeather, © 2016

Note: Actual official high and low records may vary slightly from our data, if they occured in-between our weather recording intervals... More about our weather records

Advertising

Shenzhen Weather History for the Previous 24 Hours

Scroll right to see more
 ConditionsComfort  
Time TempWeatherWind HumidityBarometerVisibility
3:00 AM
Thu, Sep 29
82 °FClear.17 mph62%29.53 "Hg10 mi
2:00 AM84 °FClear.13 mph62%29.56 "Hg10 mi
1:00 AM84 °FClear.17 mph62%29.56 "Hg10 mi
12:00 AM84 °FClear.15 mph66%29.56 "Hg10 mi
11:00 PM
Wed, Sep 28
84 °FClear.15 mph66%29.56 "Hg10 mi
10:00 PM84 °FClear.17 mph66%29.56 "Hg10 mi
9:00 PM84 °FClear.17 mph66%29.56 "Hg10 mi
8:00 PM86 °FClear.17 mph62%29.53 "Hg10 mi
7:00 PM88 °FClear.17 mph59%29.50 "Hg10 mi
6:00 PM88 °FSunny.17 mph62%29.50 "Hg10 mi
5:00 PM90 °FSunny.15 mph55%29.47 "Hg10 mi
4:00 PM91 °FSunny.17 mph52%29.47 "Hg10 mi
3:00 PM91 °FSunny.17 mph52%29.47 "Hg10 mi
2:00 PM91 °FSunny.15 mph56%29.47 "Hg10 mi
1:00 PM90 °FSunny.17 mph55%29.50 "Hg10 mi
12:00 PM90 °FClear.20 mph55%29.53 "Hg5 mi
11:00 AM88 °FClear.20 mph59%29.56 "Hg5 mi
10:00 AM88 °FClear.17 mph59%29.56 "Hg5 mi
9:00 AM88 °FClear.17 mph59%29.56 "Hg4 mi
8:00 AM86 °FHaze.17 mph62%29.56 "Hg3 mi
7:00 AM86 °FHaze.17 mph66%29.53 "Hg3 mi
6:00 AM86 °FHaze.17 mph66%29.50 "Hg3 mi
5:00 AM86 °FClear.17 mph66%29.50 "Hg4 mi
4:00 AM86 °FClear.13 mph66%29.50 "Hg4 mi
Weather by CustomWeather, © 2016

See weather overviewHow to use our weather pages